WESTFORD NEEDLES, 2375

Orbit data source: Space-Track

WESTFORD NEEDLES, 2375 is space debris in LEO originally from a launch on Thu, 09 May 1963 UTC launched from the Air Force Western Test Range (AFWTR). Debris objects in space refer to the collection of defunct objects orbiting the Earth. Examples of debris include non-operational satellites, rocket bodies, and fragments generated from explosions, collisions, or faulty payload assembly.

Loading next visibility...
Identifier
2375, 1963-014W
Orbit
LEO
Last TLE update
3 days ago
Origin
Manufacturer
Unknown
Mission
Spacecraft
Bus & Motor
Unknown
Mass
Unknown
Launch date (UTC)
1963-05-09 (62 years ago)
Launch vehicle
Unknown
Launch site
Air Force Western Test Range (AFWTR)
Object type
Payload
Rocket body
Debris
Shape & HBR
Unknown
Radar Cross Section
Medium (>0.1 m² and <1 m²)

Expand to show TLE details & history

TLE from 3 days ago
0 WESTFORD NEEDLES
1 02375U 63014W   25131.33902078  .00000326  00000-0  36235-1 0  9996
2 02375  86.4683 106.9023 1630629 260.2634  81.1051  8.74829040336285
Epoch: 2025-05-11T08:08Z
Definitive object data (Epoch: 2025-05-11T08:08:11.395Z)
Latitude
-0.00003°
Longitude
115.48694°
Altitude
3,585.93 km
Speed
6.322 km/s
True Right ascension
07h 07m 36s
True Declination
0° 00' 00"
Sunlit
Object was in daylight at TLE epoch
Visualization TLE readout
Latitude
73.14159°
Longitude
126.78889°
Altitude
5,201.652 km
Speed
5.373 km/s
Apparent Right ascension
05h 57m 14s
Apparent Declination
42° 43' 45"
Sunlit
Object is in daylight
Visualization observer readout
Local Sidereal Time
16:39:43
Azimuth
345.825° N
Elevation
-5.514°
Doppler factor
1
Orbital elements
Apogee altitude
5,190.719 km
Perigee altitude
1,946.782 km
Semi-major axis
9,946.887 km
Eccentricity
0.1630629
Inclination
86.4683°
RAAN
106.9023°
Arg. of periapsis
260.2634°
True anomaly
99.82608°
Mean anomaly
81.1051°
Eccentric anomaly
90.44763°
Mean motion
2.18782 °/min
BSTAR
0.036235
Orbital period
164.55 mins
Loading maneuver chart data...
Loading SW <> Apogee altitude chart data...

WESTFORD NEEDLES Visibility forecast

Observer location: undefined°, undefined°

Span
Click to sort rows by Start time (UTC) header in descending order
Start Az.
Max El. time (UTC)
Max El. Az.
Max El.
End time (UTC)
End Az.
42 mins2025-05-14 08:22:52.971Z357.972° N2025-05-14 08:47:52.971Z69.587° E36.649°2025-05-14 09:04:52.971Z141.615° SSE
40 mins2025-05-14 11:09:52.971Z353.698° N2025-05-14 11:33:52.971Z281.704° WNW40.24°2025-05-14 11:49:52.971Z212.335° SW
18 mins2025-05-14 13:58:52.971Z342.093° N2025-05-14 14:07:52.971Z320.672° NNW14.141°2025-05-14 14:16:52.971Z296.214° NW
23 mins2025-05-14 18:49:52.971Z68.324° E2025-05-14 19:00:52.971Z41.772° NE15.758°2025-05-14 19:12:52.971Z15.158° NNE
46 mins2025-05-14 21:15:52.971Z146.196° SSE2025-05-14 21:34:52.971Z76.953° E40.69°2025-05-14 22:01:52.971Z5.684° NNE
48 mins2025-05-14 23:59:52.971Z214.303° SW2025-05-15 00:19:52.971Z284.983° WNW38.131°2025-05-15 00:47:52.971Z2.321° NNE
25 mins2025-05-15 03:08:52.971Z304.505° NW2025-05-15 03:20:52.971Z332.113° NNW13.729°2025-05-15 03:33:52.971Z1.025° NNE
29 mins2025-05-15 06:20:52.971Z2.247° NNE2025-05-15 06:35:52.971Z38.736° NE17.509°2025-05-15 06:49:52.971Z79.519° E
|